Home > Time Zones > World Clock > Weather > Spain > Palma > Past weeks

Flag for Spain Weather past 2 weeks in Palma, Majorca, Spain

Now
59 °F

Clear.


Feels Like: 59 °F
Forecast: 49 / 63 °F
Wind: No wind

Location: Palma De Mallorca / Son San Juan

Current Time: Dec 18, 2014 at 6:53:19 PM

Latest Report: Dec 18, 2014 at 6:00 PM


Visibility: 10 mi

Pressure: 30.27 "Hg

Humidity: 82%

Dew point: 54 °F

Location of PalmaLocation

Historic Weather in Palma — Graph

°F

Palma temperature yesterday

Maximum temperature yesterday: 63 °F (at 12:00 PM)
Minimum temperature yesterday: 39 °F (at 7:30 AM)
Average temperature yesterday: 52 °F

Past Weeks' High & Low Weather Summary

 TemperatureHumidityPressure
High64 °F (Dec 11, 12:30 PM)100% (Dec 3, 6:30 PM)30.39 "Hg (Dec 3, 6:30 PM)
Low37 °F (Dec 7, 8:00 AM)30% (Dec 9, 11:30 AM)29.77 "Hg (Dec 4, 2:30 AM)
Average53 °F79%30.08 "Hg
* Reported Dec 3 5:00 PM — Dec 18 5:30 PM, Palma, Weather by CustomWeather, © 2014

Note: Actual official high and low records may vary slightly from our data, if they occured in-between our weather recording intervals... More about our weather records

Advertising

Palma weather history for previous 24 hours

 ConditionsComfort  
Time TempWeatherWind HumidityBarometerVisibility
5:30 PM
Dec 18
61 °FPassing clouds.No wind77%30.24 "HgN/A
5:00 PM61 °FScattered clouds.No wind72%30.24 "HgN/A
4:30 PM61 °FScattered clouds.2 mph68%30.24 "HgN/A
4:00 PM63 °FScattered clouds.2 mph64%30.24 "HgN/A
3:30 PM63 °FScattered clouds.7 mph64%30.24 "HgN/A
3:00 PM63 °FSunny.5 mph64%30.24 "Hg10 mi
2:30 PM64 °FPassing clouds.5 mph56%30.21 "HgN/A
2:00 PM63 °FPassing clouds.5 mph59%30.21 "HgN/A
1:30 PM63 °FSunny.7 mph59%30.21 "Hg10 mi
1:00 PM64 °FSunny.9 mph56%30.24 "Hg10 mi
12:30 PM64 °FSunny.7 mph56%30.24 "Hg10 mi
12:00 PM64 °FSunny.2 mph60%30.24 "Hg10 mi
11:30 AM63 °FPassing clouds.7 mph68%30.24 "HgN/A
11:00 AM61 °FSunny.8 mph68%30.24 "Hg10 mi
10:30 AM57 °FSunny.No wind82%30.24 "Hg10 mi
10:00 AM55 °FSunny.No wind82%30.21 "Hg10 mi
9:30 AM55 °FPassing clouds.1 mph82%30.21 "HgN/A
9:00 AM55 °FPassing clouds.2 mph77%30.21 "HgN/A
8:30 AM54 °FPassing clouds.1 mph82%30.18 "HgN/A
8:00 AM54 °FPassing clouds.5 mph82%30.18 "HgN/A
7:30 AM57 °FPassing clouds.6 mph77%30.18 "HgN/A
7:00 AM57 °FPassing clouds.9 mph77%30.15 "HgN/A
6:30 AM59 °FPassing clouds.9 mph72%30.15 "HgN/A
6:00 AM59 °FPassing clouds.12 mph72%30.15 "HgN/A
5:30 AM59 °FPassing clouds.8 mph68%30.15 "HgN/A
4:30 AM59 °FPassing clouds.9 mph68%30.15 "HgN/A
4:00 AM59 °FPassing clouds.12 mph68%30.15 "HgN/A
3:30 AM59 °FPassing clouds.8 mph68%30.15 "HgN/A
3:00 AM61 °FPassing clouds.13 mph63%30.15 "HgN/A
2:30 AM61 °FPassing clouds.8 mph63%30.12 "HgN/A
2:00 AM61 °FPassing clouds.8 mph68%30.15 "HgN/A
1:30 AM61 °FPassing clouds.10 mph63%30.15 "HgN/A
1:00 AM61 °FPassing clouds.6 mph68%30.15 "HgN/A
12:30 AM57 °FPassing clouds.12 mph88%30.15 "HgN/A
12:00 AM57 °FPassing clouds.10 mph94%30.15 "HgN/A
11:30 PM
Dec 17
59 °FPassing clouds.8 mph82%30.18 "HgN/A
11:00 PM59 °FPassing clouds.3 mph77%30.18 "HgN/A
10:30 PM57 °FPassing clouds.7 mph82%30.18 "HgN/A
10:00 PM57 °FPassing clouds.8 mph82%30.15 "HgN/A
9:30 PM55 °FPassing clouds.6 mph82%30.15 "HgN/A
9:00 PM54 °FPassing clouds.1 mph88%30.18 "HgN/A
8:30 PM55 °FPassing clouds.No wind82%30.18 "HgN/A
8:00 PM54 °FPassing clouds.1 mph82%30.18 "HgN/A
7:30 PM54 °FPassing clouds.1 mph82%30.18 "HgN/A
7:00 PM55 °FPassing clouds.1 mph77%30.15 "HgN/A
6:30 PM57 °FPassing clouds.No wind67%30.15 "HgN/A
6:00 PM57 °FPassing clouds.3 mph72%30.15 "HgN/A
Weather by CustomWeather, © 2014

See weather overviewHow to use our weather pages